INTELSAT 906 (IS-906)

Last updated on Tue Mar 03 2026 00:02:49 GMT+0000 (Coordinated Universal Time)

1 27513U 02041A 26061.61372089 -.00000001 00000+0 00000+0 0 9996 2 27513 5.5316 74.2350 0003265 254.7367 116.5043 1.00272585 85969
UTC large
Height (km)
Speed (km/s)
/
Latitude / Longitude
Inclination (degrees)
Orbital Period (minutes)
Azimuth
Elevation
Range (km)
Doppler Factor

Next 0 passes for location: London (51.5072 / 0.1276)

Sorry there are no passes over London.